This is the latest recevied weather packets stored in our database for station/object IZ8GMP-13. If no packets are shown the sender has not sent any weather packets the latest 10 day(s).
| Time | Temp. | Humidity | Pressure | Rain* | Wind** | Luminosity | Snow |
|---|---|---|---|---|---|---|---|
| 1788582737 | 27.22° C | 52% | 1018 hPa | - | - | - | - |
| 1788581533 | 27.22° C | 53% | 1017.9 hPa | - | - | - | - |
| 1788580330 | 27.22° C | 55% | 1017.8 hPa | - | - | - | - |
| 1788579126 | 27.78° C | 51% | 1017.6 hPa | - | - | - | - |
| 1788577923 | 27.78° C | 49% | 1017.6 hPa | - | - | - | - |
| 1788576719 | 28.33° C | 45% | 1017.5 hPa | - | - | - | - |
| 1788574313 | 28.33° C | 50% | 1017.4 hPa | - | - | - | - |
| 1788573109 | 27.78° C | 54% | 1017.5 hPa | - | - | - | - |
| 1788571906 | 27.22° C | 58% | 1017.6 hPa | - | - | - | - |
| 1788570702 | 27.22° C | 64% | 1017.6 hPa | - | - | - | - |
| 1788569499 | 27.22° C | 65% | 1017.6 hPa | - | - | - | - |
| 1788568295 | 27.22° C | 65% | 1017.7 hPa | - | - | - | - |
| 1788567092 | 27.22° C | 66% | 1017.6 hPa | - | - | - | - |
| 1788564685 | 27.22° C | 66% | 1017.8 hPa | - | - | - | - |
| 1788563481 | 27.22° C | 59% | 1017.9 hPa | - | - | - | - |
| 1788562278 | 27.22° C | 52% | 1018.2 hPa | - | - | - | - |
| 1788561074 | 27.22° C | 57% | 1018.2 hPa | - | - | - | - |
| 1788559871 | 27.22° C | 47% | 1018.2 hPa | - | - | - | - |
| 1788558667 | 27.22° C | 50% | 1018 hPa | - | - | - | - |
| 1788557464 | 27.22° C | 47% | 1018.1 hPa | - | - | - | - |
| 1788555057 | 27.78° C | 46% | 1018.2 hPa | - | - | - | - |
| 1788553854 | 27.78° C | 50% | 1018.1 hPa | - | - | - | - |
| 1788552650 | 27.78° C | 51% | 1018.1 hPa | - | - | - | - |
| 1788551447 | 27.78° C | 49% | 1018.3 hPa | - | - | - | - |
| 1788550243 | 27.78° C | 54% | 1018.2 hPa | - | - | - | - |
* Rain since midnight (hover to see other rain measurements)
** Current wind speed in m/s (hover to see current wind gust speed)